TimeEST,TemperatureF,Dew PointF,Humidity,Sea Level PressureIn,VisibilityMPH,Wind Direction,Wind SpeedMPH,Gust SpeedMPH,PrecipitationIn,Events,Conditions,WindDirDegrees,DateUTC
12:54 AM,30.9,19.9,64,30.22,10.0,NE,3.5,-,N/A,,Overcast,50,2013-01-16 05:54:00
1:54 AM,30.9,19.9,64,30.22,10.0,NE,3.5,-,N/A,,Overcast,40,2013-01-16 06:54:00
2:54 AM,30.9,19.9,64,30.21,10.0,NE,4.6,-,N/A,,Overcast,50,2013-01-16 07:54:00
3:54 AM,30.9,19.9,64,30.17,10.0,NE,4.6,-,N/A,,Overcast,40,2013-01-16 08:54:00
4:24 AM,28.9,23.0,78,30.12,1.5,ENE,5.8,-,0.00,Snow,Light Snow,60,2013-01-16 09:24:00
4:39 AM,28.0,24.1,85,30.11,1.0,East,4.6,-,0.01,Snow,Light Snow,90,2013-01-16 09:39:00
4:46 AM,28.0,25.0,88,30.10,0.8,East,4.6,-,0.02,Snow,Light Snow,80,2013-01-16 09:46:00
4:54 AM,27.0,25.0,92,30.14,0.8,ENE,5.8,-,0.03,Snow,Light Snow,70,2013-01-16 09:54:00
5:54 AM,27.0,25.0,92,30.12,0.5,NE,4.6,-,0.09,Fog-Snow,Snow,50,2013-01-16 10:54:00
6:54 AM,27.0,25.0,92,30.12,0.8,NNE,5.8,-,0.11,Snow,Light Snow,30,2013-01-16 11:54:00
7:15 AM,27.0,25.0,92,30.06,1.0,NNE,6.9,-,0.04,Snow,Light Snow,30,2013-01-16 12:15:00
7:27 AM,27.0,25.0,92,30.05,2.0,NE,5.8,-,0.04,Snow,Light Snow,50,2013-01-16 12:27:00
7:34 AM,27.0,25.0,92,30.05,1.8,NE,6.9,-,0.04,Snow,Light Snow,40,2013-01-16 12:34:00
7:54 AM,27.0,25.0,92,30.08,1.0,NE,8.1,-,0.05,Snow,Light Snow,50,2013-01-16 12:54:00
8:04 AM,27.0,25.0,92,30.04,0.8,NE,6.9,-,0.01,Snow,Light Snow,50,2013-01-16 13:04:00
8:19 AM,27.0,26.1,96,30.04,1.0,ENE,5.8,-,0.02,Snow,Light Snow,60,2013-01-16 13:19:00
8:54 AM,28.0,26.1,92,30.07,1.8,NE,5.8,-,0.04,Snow,Light Snow,50,2013-01-16 13:54:00
9:00 AM,28.0,26.1,92,30.02,2.5,ENE,6.9,-,0.01,Snow,Light Snow,60,2013-01-16 14:00:00
9:12 AM,28.0,26.1,92,30.01,2.5,ENE,6.9,-,0.01,Rain,Light Freezing Rain,70,2013-01-16 14:12:00
9:41 AM,28.0,26.1,92,29.97,2.5,ENE,6.9,-,0.01,,Overcast,60,2013-01-16 14:41:00
9:54 AM,28.0,26.1,92,30.00,1.8,ENE,6.9,-,0.01,,Overcast,60,2013-01-16 14:54:00
10:12 AM,28.0,27.0,96,29.93,0.8,ENE,8.1,-,N/A,,Overcast,70,2013-01-16 15:12:00
10:51 AM,28.4,26.6,93,29.93,0.5,NNE,9.2,-,0.00,Rain,Light Freezing Rain,20,2013-01-16 15:51:00
10:54 AM,28.0,27.0,96,29.97,0.5,NNE,9.2,-,0.00,Rain,Light Freezing Rain,30,2013-01-16 15:54:00
11:54 AM,28.9,28.0,96,29.94,0.5,NE,6.9,-,0.02,Rain,Light Freezing Rain,40,2013-01-16 16:54:00
12:22 PM,30.0,28.0,92,29.88,0.5,Variable,3.5,-,0.01,Snow,Light Snow,0,2013-01-16 17:22:00
12:45 PM,30.0,28.0,92,29.88,0.5,ENE,3.5,-,0.02,Rain,Light Freezing Rain,60,2013-01-16 17:45:00
12:54 PM,30.0,28.9,96,29.91,0.5,Variable,3.5,-,0.02,Rain,Light Freezing Rain,0,2013-01-16 17:54:00
1:07 PM,30.0,28.0,92,29.87,0.5,NNE,5.8,-,0.01,Snow,Light Snow,30,2013-01-16 18:07:00
1:54 PM,30.2,28.4,93,29.79,0.5,NNE,8.1,-,N/A,Rain,Light Freezing Rain,30,2013-01-16 18:54:00
2:50 PM,30.2,28.4,93,29.80,0.5,NNE,5.8,-,0.01,,Overcast,30,2013-01-16 19:50:00
2:54 PM,30.2,28.4,93,29.80,0.5,NE,3.5,-,N/A,,Overcast,40,2013-01-16 19:54:00
3:20 PM,30.9,28.9,92,29.82,0.5,NNW,5.8,-,0.00,Rain,Light Freezing Rain,330,2013-01-16 20:20:00
3:54 PM,30.9,30.0,96,29.85,0.5,NNW,3.5,-,0.02,Rain,Light Freezing Rain,330,2013-01-16 20:54:00
4:09 PM,30.9,30.0,96,29.82,1.0,NNW,4.6,-,0.00,Rain,Light Freezing Rain,330,2013-01-16 21:09:00
4:15 PM,30.9,28.9,92,29.82,1.0,NW,3.5,-,0.00,,Light Freezing Drizzle,320,2013-01-16 21:15:00
4:26 PM,30.9,30.0,96,29.81,1.5,Calm,Calm,-,0.00,,Light Freezing Drizzle,0,2013-01-16 21:26:00
4:37 PM,30.9,30.0,96,29.81,2.0,Calm,Calm,-,0.00,,Overcast,0,2013-01-16 21:37:00
4:41 PM,30.2,30.2,100,29.80,1.5,Calm,Calm,-,N/A,Snow,Light Snow,0,2013-01-16 21:41:00
4:54 PM,30.9,30.0,96,29.86,1.5,Calm,Calm,-,0.00,,Overcast,0,2013-01-16 21:54:00
5:02 PM,30.9,28.9,92,29.81,1.5,Calm,Calm,-,0.00,,Overcast,0,2013-01-16 22:02:00
5:06 PM,30.9,28.9,92,29.81,2.0,WSW,3.5,-,0.00,,Overcast,250,2013-01-16 22:06:00
5:17 PM,30.9,30.0,96,29.81,2.5,Calm,Calm,-,0.00,,Overcast,0,2013-01-16 22:17:00
5:50 PM,30.2,30.2,100,29.80,10.0,Calm,Calm,-,0.00,,Overcast,0,2013-01-16 22:50:00
5:54 PM,30.9,30.9,100,29.85,10.0,Calm,Calm,-,0.00,,Overcast,0,2013-01-16 22:54:00
6:25 PM,32.0,30.0,92,29.81,10.0,Calm,Calm,-,N/A,,Overcast,0,2013-01-16 23:25:00
6:54 PM,30.9,30.0,96,29.84,10.0,SSW,4.6,-,N/A,,Overcast,200,2013-01-16 23:54:00
7:27 PM,30.9,30.0,96,29.79,1.8,SSW,5.8,-,N/A,,Overcast,200,2013-01-17 00:27:00
7:52 PM,30.2,30.2,100,29.80,7.0,West,5.8,-,N/A,,Overcast,270,2013-01-17 00:52:00
7:54 PM,30.9,30.0,96,29.85,8.0,West,5.8,-,N/A,,Overcast,260,2013-01-17 00:54:00
8:29 PM,32.0,30.0,92,29.80,10.0,West,9.2,-,N/A,,Overcast,260,2013-01-17 01:29:00
8:54 PM,32.0,30.0,92,29.83,10.0,WSW,11.5,-,N/A,,Overcast,250,2013-01-17 01:54:00
9:29 PM,32.0,30.0,92,29.79,10.0,West,12.7,-,N/A,,Overcast,270,2013-01-17 02:29:00
9:54 PM,30.9,30.0,96,29.84,6.0,West,10.4,-,N/A,,Overcast,260,2013-01-17 02:54:00
10:22 PM,30.9,30.0,96,29.80,2.5,West,9.2,-,N/A,,Overcast,260,2013-01-17 03:22:00
10:54 PM,30.9,30.0,96,29.83,2.0,West,10.4,-,N/A,,Overcast,260,2013-01-17 03:54:00
11:51 PM,30.2,30.2,100,29.79,3.0,West,11.5,-,N/A,,Overcast,260,2013-01-17 04:51:00
11:54 PM,30.9,30.0,96,29.83,3.0,West,11.5,-,N/A,,Overcast,260,2013-01-17 04:54:00